EA3KZ-1 Weather Reports


time (UTC)temp
F
wind
direction
speed
knots
gust
knots
rain 1hr
in
rain 24hr
in
rain mn
in
humidity
%
barometer
mb
20260502212055 59 359 3.5 6.1 0.00 0.00 0.00 86 1015.5
20260502211053 59 11 2.6 6.1 0.00 0.00 0.00 86 1015.4
20260502210050 59 350 1.7 3.5 0.00 0.00 0.00 86 1015.6
20260502205048 59 340 2.6 6.1 0.00 0.00 0.00 86 1015.4
20260502204045 59 14 2.6 7.0 0.00 0.00 0.00 86 1015.6
20260502203042 59 351 2.6 5.2 0.00 0.00 0.00 86 1015.4
20260502202039 59 51 1.7 5.2 0.00 0.00 0.00 86 1015.5
20260502201037 59 23 3.5 6.1 0.00 0.00 0.00 86 1015.3
20260502200034 59 330 3.5 7.0 0.00 0.00 0.00 85 1015.2
20260502195031 59 334 3.5 6.1 0.00 0.00 0.00 84 1015.1
20260502194028 59 350 2.6 6.1 0.00 0.00 0.00 84 1015.0
20260502193026 60 329 2.6 5.2 0.00 0.00 0.00 84 1015.1
20260502192023 59 15 2.6 6.1 0.00 0.00 0.00 84 1015.2
20260502191020 60 94 1.7 3.5 0.00 0.00 0.00 83 1015.0
20260502190018 60 114 0.9 3.5 0.00 0.00 0.00 81 1015.2
20260502185015 60 60 3.5 7.0 0.00 0.00 0.00 80 1015.1
20260502184113 60 74 2.6 6.1 0.00 0.00 0.00 79 1014.9
20260502183110 61 133 0.9 3.5 0.00 0.00 0.00 78 1015.2
20260502182108 61 27 2.6 6.1 0.00 0.00 0.00 76 1015.1
20260502181105 61 34 0.9 6.1 0.00 0.00 0.00 74 1015.0
20260502164041 63 14 1.7 7.0 0.00 0.00 0.00 65 1015.8
20260502163039 63 47 2.6 7.0 0.00 0.00 0.00 67 1015.7
20260502162036 62 9 5.2 11.3 0.00 0.00 0.00 67 1015.6
20260502161033 63 31 4.3 7.0 0.00 0.00 0.00 65 1015.9
20260502152021 64 79 2.6 7.8 0.00 0.00 0.00 66 1016.4
20260502151018 65 169 0.9 3.5 0.00 0.00 0.00 68 1016.3
20260502123035 68 68 1.7 7.8 0.00 0.00 0.00 49 1017.5
20260502122033 68 85 1.7 3.5 0.00 0.00 0.00 51 1017.6
20260502121030 68 86 2.6 9.6 0.00 0.00 0.00 54 1017.6
20260502115025 66 8 1.7 5.2 0.00 0.00 0.00 63 1017.7
20260502114023 65 4 2.6 5.2 0.00 0.00 0.00 65 1017.8
20260502113020 64 341 2.6 7.0 0.00 0.00 0.00 65 1017.8
20260502112017 64 320 2.6 7.0 0.00 0.00 0.00 66 1017.9
20260502111115 64 351 3.5 7.8 0.00 0.00 0.00 67 1018.0
20260502110112 63 340 2.6 7.0 0.00 0.00 0.00 68 1017.9
20260502105109 62 332 4.3 7.0 0.00 0.00 0.00 68 1018.1
20260502104107 62 346 2.6 6.1 0.00 0.00 0.00 68 1018.4
20260502103104 62 322 2.6 6.1 0.00 0.00 0.00 69 1018.7
20260502102102 62 32 2.6 5.2 0.00 0.00 0.00 68 1018.7
20260502101059 62 3 1.7 5.2 0.00 0.00 0.00 68 1018.8
20260502091043 60 319 3.5 6.1 0.00 0.00 0.00 72 1018.9
20260502071112 59 1 4.3 6.1 0.00 0.00 0.00 80 1018.8
20260502070109 59 345 2.6 5.2 0.00 0.00 0.00 82 1018.8
20260502065107 59 353 2.6 5.2 0.00 0.00 0.00 82 1018.8
20260502064104 59 7 2.6 6.1 0.00 0.00 0.00 83 1018.8
20260502063102 59 0 2.6 5.2 0.00 0.00 0.00 83 1018.6
20260502062059 59 303 2.6 7.0 0.00 0.00 0.00 84 1018.5
20260502061057 58 330 1.7 5.2 0.00 0.00 0.00 84 1018.7
20260502060054 58 326 2.6 6.1 0.00 0.00 0.00 84 1018.5
20260502055051 58 7 3.5 6.1 0.00 0.00 0.00 85 1018.6
20260502054049 58 319 2.6 5.2 0.00 0.00 0.00 85 1018.5
20260502053046 58 327 2.6 3.5 0.00 0.00 0.00 85 1018.4
20260502052044 58 342 3.5 6.1 0.00 0.00 0.00 86 1018.4
20260502051041 58 342 2.6 3.5 0.00 0.00 0.00 86 1018.3
20260502050038 58 339 2.6 5.2 0.00 0.00 0.00 86 1018.3
20260502045035 58 336 2.6 6.1 0.00 0.00 0.00 87 1018.4
20260502044033 58 20 3.5 6.1 0.00 0.00 0.00 87 1018.4
20260502043030 58 325 3.5 6.1 0.00 0.00 0.00 86 1018.3
20260502042027 58 327 3.5 7.0 0.00 0.00 0.00 86 1018.3
20260502041024 58 327 1.7 5.2 0.00 0.00 0.00 87 1018.3
20260502040022 58 345 2.6 7.0 0.00 0.00 0.00 87 1018.3
20260502035019 58 22 2.6 5.2 0.00 0.00 0.00 87 1018.3
20260502034016 58 348 2.6 5.2 0.00 0.00 0.00 87 1018.4
20260502033114 58 14 2.6 6.1 0.00 0.00 0.00 88 1018.4
20260502032112 59 17 3.5 6.1 0.00 0.00 0.00 88 1018.3
20260502031109 59 338 3.5 6.1 0.00 0.00 0.00 88 1018.4
20260502030106 59 343 4.3 7.8 0.00 0.00 0.00 88 1018.4
20260502025104 59 355 3.5 6.1 0.00 0.00 0.00 88 1018.5
20260502024101 59 351 2.6 6.1 0.00 0.00 0.00 88 1018.6
20260502023059 59 311 3.5 5.2 0.00 0.00 0.00 88 1018.6
20260502022056 59 345 2.6 6.1 0.00 0.00 0.00 88 1018.5
20260502021053 59 321 2.6 6.1 0.00 0.00 0.00 88 1018.5
20260502020051 59 332 2.6 6.1 0.00 0.00 0.00 89 1018.7
20260502015048 58 318 3.5 5.2 0.00 0.00 0.00 88 1018.7
20260502014045 58 300 2.6 3.5 0.00 0.00 0.00 88 1018.7
20260502013043 58 323 3.5 6.1 0.00 0.00 0.00 87 1018.8
20260502012040 59 321 2.6 5.2 0.00 0.00 0.00 85 1018.8
20260502011037 59 342 3.5 6.1 0.00 0.00 0.00 81 1019.0
20260502010034 60 284 2.6 3.5 0.00 0.00 0.00 77 1019.1
20260502005031 59 287 3.5 6.1 0.00 0.00 0.00 76 1019.1
20260502004029 59 289 2.6 5.2 0.00 0.00 0.00 75 1019.3
20260502003026 59 337 2.6 6.1 0.00 0.00 0.00 75 1019.5
20260502002024 59 294 1.7 5.2 0.00 0.00 0.00 75 1019.6
20260502001021 59 343 3.5 5.2 0.00 0.00 0.00 76 1019.7
20260502000019 59 303 4.3 7.0 0.00 0.00 0.00 76 1019.8
20260501235016 59 349 1.7 6.1 0.00 0.00 0.00 76 1019.9
20260501234114 59 336 2.6 5.2 0.00 0.00 0.00 77 1020.0
20260501233111 59 4 3.5 5.2 0.00 0.00 0.00 77 1020.0
20260501232108 59 335 5.2 7.0 0.00 0.00 0.00 77 1020.0
20260501231106 59 318 2.6 6.1 0.00 0.00 0.00 77 1020.0
20260501225100 59 335 3.5 6.1 0.00 0.00 0.00 76 1020.0
20260501224058 59 308 3.5 5.2 0.00 0.00 0.00 76 1019.8
20260501223055 59 1 2.6 6.1 0.00 0.00 0.00 77 1019.8
20260501222052 59 333 2.6 7.0 0.00 0.00 0.00 78 1019.7
20260501221050 59 315 3.5 7.0 0.00 0.00 0.00 79 1019.8
20260501220047 59 302 3.5 7.0 0.00 0.00 0.00 80 1019.7
20260501215045 59 342 2.6 6.1 0.00 0.00 0.00 81 1019.7
20260501214042 59 357 2.6 3.5 0.00 0.00 0.00 84 1020.0
20260501213040 59 352 0.9 3.5 0.00 0.00 0.00 87 1020.0